FW5361 Weather Reports


time (UTC)temp
F
wind
direction
speed
knots
gust
knots
rain 1hr
in
rain 24hr
in
rain mn
in
humidity
%
barometer
mb
20260505102043 60 0 0.0 3.5 0.00 0.00 0.00 74 1005.8
20260505101555 60 0 0.0 3.5 0.00 0.00 0.00 72 1005.8
20260505101042 60 0 0.0 2.6 0.00 0.00 0.00 73 1005.8
20260505100542 59 0 0.0 2.6 0.00 0.00 0.00 73 1005.7
20260505100055 60 0 0.0 1.7 0.00 0.00 0.00 74 1005.6
20260505095542 60 0 0.0 1.7 0.00 0.00 0.00 73 1005.5
20260505095043 60 0 0.0 1.7 0.00 0.00 0.00 73 1005.5
20260505094600 60 0 0.0 0.9 0.00 0.00 0.00 74 1005.5
20260505094039 60 0 0.0 0.9 0.00 0.00 0.00 73 1005.4
20260505093539 61 0 0.0 0.9 0.00 0.00 0.00 72 1005.5
20260505093055 61 0 0.0 4.3 0.00 0.00 0.00 70 1005.4
20260505092539 61 0 0.0 4.3 0.00 0.00 0.00 71 1005.4
20260505092046 61 0 0.0 3.5 0.00 0.00 0.00 70 1005.3
20260505091549 62 0 0.0 3.5 0.00 0.00 0.00 70 1005.5
20260505091042 62 0 0.9 4.3 0.00 0.00 0.00 69 1005.3
20260505090542 62 0 0.0 4.3 0.00 0.00 0.00 68 1005.2
20260505090057 62 0 0.0 6.1 0.00 0.00 0.00 68 1005.2
20260505085544 62 38 0.9 7.0 0.00 0.00 0.00 67 1005.1
20260505085045 62 0 0.9 7.0 0.00 0.00 0.00 67 1005.1
20260505084600 63 44 0.9 7.0 0.00 0.00 0.00 67 1005.0
20260505084042 62 0 0.9 7.0 0.00 0.00 0.00 67 1004.9
20260505083547 62 0 0.0 8.7 0.00 0.00 0.00 67 1004.9
20260505083105 63 43 0.9 8.7 0.00 0.00 0.00 67 1004.8
20260505082540 62 0 0.9 3.5 0.00 0.00 0.00 67 1004.8
20260505082040 62 0 0.0 10.4 0.00 0.00 0.00 67 1004.9
20260505081553 62 0 0.9 10.4 0.00 0.00 0.00 69 1004.8
20260505081040 62 0 0.0 8.7 0.00 0.00 0.00 68 1004.8
20260505080540 62 0 0.9 8.7 0.00 0.00 0.00 68 1004.8
20260505080054 62 0 0.9 8.7 0.00 0.00 0.00 68 1004.7
20260505075542 62 0 0.9 5.2 0.00 0.00 0.00 68 1004.7
20260505075042 62 0 0.0 10.4 0.00 0.00 0.00 68 1004.6
20260505074549 62 0 0.9 10.4 0.00 0.00 0.00 68 1004.7
20260505074043 62 313 0.0 7.8 0.00 0.00 0.00 69 1004.6
20260505073539 62 0 0.9 8.7 0.00 0.00 0.00 68 1004.6
20260505073054 62 0 0.9 8.7 0.00 0.00 0.00 68 1004.5
20260505072542 62 0 0.9 7.8 0.00 0.00 0.00 69 1004.4
20260505072042 61 9 0.9 7.8 0.00 0.00 0.00 70 1004.4
20260505071554 62 0 0.0 4.3 0.00 0.00 0.00 68 1004.3
20260505071043 62 0 0.0 2.6 0.00 0.00 0.00 68 1004.2
20260505070543 62 113 0.0 4.3 0.00 0.00 0.00 68 1004.2
20260505070104 62 62 0.0 4.3 0.00 0.00 0.00 67 1004.2
20260505065539 62 0 0.0 7.0 0.00 0.00 0.00 68 1004.2
20260505065039 62 0 0.0 7.0 0.00 0.00 0.00 68 1004.1
20260505064559 62 0 0.9 7.0 0.00 0.00 0.00 68 1004.2
20260505064039 62 0 0.0 3.5 0.00 0.00 0.00 68 1004.1
20260505063541 62 0 0.0 7.0 0.00 0.00 0.00 68 1004.2
20260505063052 62 0 0.0 7.0 0.00 0.00 0.00 70 1004.2
20260505062541 62 0 0.9 7.0 0.00 0.00 0.00 67 1004.3
20260505062042 62 0 0.0 4.3 0.00 0.00 0.00 70 1004.3
20260505061613 62 0 0.0 4.3 0.00 0.00 0.00 70 1004.5
20260505061042 62 0 0.0 5.2 0.00 0.00 0.00 70 1004.5
20260505060542 62 0 0.0 7.8 0.00 0.00 0.00 68 1004.6
20260505060059 63 0 0.9 7.8 0.00 0.00 0.00 71 1004.6
20260505055540 63 39 2.6 7.8 0.00 0.00 0.00 68 1004.6
20260505055042 62 138 0.0 4.3 0.00 0.00 0.00 70 1004.7
20260505054556 62 0 0.9 4.3 0.00 0.00 0.00 69 1004.9
20260505054040 63 0 0.0 4.3 0.00 0.00 0.00 72 1005.0
20260505053539 63 24 0.9 4.3 0.00 0.00 0.00 71 1005.0
20260505053056 62 0 0.0 3.5 0.00 0.00 0.00 70 1005.1
20260505052539 63 156 0.0 3.5 0.00 0.00 0.00 70 1005.1
20260505052039 63 0 0.0 3.5 0.00 0.00 0.00 70 1005.1
20260505051551 63 0 0.0 4.3 0.00 0.00 0.00 70 1005.2
20260505051041 63 67 0.0 4.3 0.00 0.00 0.00 67 1005.2
20260505050540 63 20 0.9 4.3 0.00 0.00 0.00 69 1005.1
20260505041556 63 37 0.0 3.5 0.00 0.00 0.00 71 1005.1
20260505041041 62 0 0.0 3.5 0.00 0.00 0.00 72 1005.1
20260505040542 62 0 0.0 2.6 0.00 0.00 0.00 70 1005.1
20260505040100 62 0 0.0 7.8 0.00 0.00 0.00 72 1005.2
20260505035544 62 0 0.0 7.8 0.00 0.00 0.00 71 1005.3
20260505035041 62 62 0.0 4.3 0.00 0.00 0.00 71 1005.2
20260505034546 62 129 0.0 2.6 0.00 0.00 0.00 71 1005.3
20260505034040 62 0 0.0 5.2 0.00 0.00 0.00 73 1005.3
20260505033541 63 176 0.0 5.2 0.00 0.00 0.00 74 1005.3
20260505033059 63 20 0.9 5.2 0.00 0.00 0.00 70 1005.2
20260505032543 63 318 0.0 7.8 0.00 0.00 0.00 69 1005.2
20260505032039 63 274 1.7 7.8 0.00 0.00 0.00 71 1005.2
20260505031552 63 0 0.0 6.1 0.00 0.00 0.00 69 1005.2
20260505031039 63 344 0.9 6.1 0.00 0.00 0.00 68 1005.2
20260505030540 63 88 0.0 6.1 0.00 0.00 0.00 68 1005.2
20260505030051 63 0 0.9 6.1 0.00 0.00 0.00 67 1005.1
20260505025540 63 0 0.0 4.3 0.00 0.00 0.00 67 1005.1
20260505025040 62 46 0.0 5.2 0.00 0.00 0.00 68 1005.2
20260505024549 63 9 0.0 5.2 0.00 0.00 0.00 68 1005.1
20260505024039 63 273 0.9 5.2 0.00 0.00 0.00 67 1005.1
20260505023543 63 58 0.9 5.2 0.00 0.00 0.00 68 1005.1
20260505023047 63 0 0.9 5.2 0.00 0.00 0.00 68 1005.1
20260505022539 63 0 0.0 7.0 0.00 0.00 0.00 68 1005.2
20260505022042 63 55 0.9 7.0 0.00 0.00 0.00 66 1005.3
20260505021552 63 0 2.6 7.0 0.00 0.00 0.00 66 1005.2
20260505021040 62 0 0.0 6.1 0.00 0.00 0.00 68 1005.2
20260505020540 62 0 0.9 5.2 0.00 0.00 0.00 69 1005.2
20260505020053 62 0 0.0 5.2 0.00 0.00 0.00 69 1005.1
20260505015540 62 0 0.9 3.5 0.00 0.00 0.00 69 1005.2
20260505015040 62 62 0.0 3.5 0.00 0.00 0.00 68 1005.2
20260505014549 62 352 0.0 5.2 0.00 0.00 0.00 69 1005.1
20260505014039 62 42 0.9 5.2 0.00 0.00 0.00 69 1005.1
20260505013539 62 5 0.0 3.5 0.00 0.00 0.00 68 1005.0
20260505013054 62 0 0.0 3.5 0.00 0.00 0.00 69 1005.1
20260505012539 62 0 0.9 5.2 0.00 0.00 0.00 67 1005.0
20260505012041 62 273 0.0 5.2 0.00 0.00 0.00 68 1005.0
20260505011549 62 0 0.9 5.2 0.00 0.00 0.00 68 1005.0
20260505011043 63 0 0.9 3.5 0.00 0.00 0.00 66 1004.9
20260505010540 63 261 0.0 3.5 0.00 0.00 0.00 65 1004.9
20260505005541 64 93 0.0 4.3 0.00 0.00 0.00 63 1004.9
20260505005040 64 0 0.9 4.3 0.00 0.00 0.00 65 1004.9
20260505004553 64 0 0.9 5.2 0.00 0.00 0.00 64 1004.8
20260505004040 64 0 0.0 5.2 0.00 0.00 0.00 64 1004.8
20260505003543 65 0 0.9 5.2 0.00 0.00 0.00 62 1004.8
20260505003048 65 0 0.0 3.5 0.00 0.00 0.00 60 1004.7
20260505002540 65 0 0.0 7.0 0.00 0.00 0.00 60 1004.8
20260505002040 65 0 0.9 7.0 0.00 0.00 0.00 62 1004.8
20260505001552 66 317 0.9 7.0 0.00 0.00 0.00 60 1004.7
20260505001039 66 269 0.9 7.8 0.00 0.00 0.00 59 1004.8
20260505000542 66 17 1.7 8.7 0.00 0.00 0.00 58 1004.7
20260504235540 67 0 0.9 7.0 0.00 0.00 0.00 58 1004.7
20260504235043 67 92 1.7 8.7 0.00 0.00 0.00 57 1004.7
20260504234603 67 19 0.9 8.7 0.00 0.00 0.00 57 1004.8
20260504234044 68 0 0.9 5.2 0.00 0.00 0.00 56 1004.9
20260504233540 68 0 0.9 7.8 0.00 0.00 0.00 56 1005.0
20260504233055 68 26 1.7 7.8 0.00 0.00 0.00 55 1004.9
20260504232541 68 49 2.6 7.8 0.00 0.00 0.00 54 1005.0
20260504232041 68 63 1.7 11.3 0.00 0.00 0.00 54 1005.0
20260504231553 68 147 3.5 11.3 0.00 0.00 0.00 55 1004.9
20260504231041 68 76 3.5 11.3 0.00 0.00 0.00 53 1005.1
20260504230539 69 177 3.5 10.4 0.00 0.00 0.00 53 1005.1
20260504230054 70 78 4.3 10.4 0.00 0.00 0.00 51 1005.2
20260504225541 70 352 2.6 12.2 0.00 0.00 0.00 51 1005.1
20260504225041 70 49 2.6 16.5 0.00 0.00 0.00 52 1005.2
20260504224554 70 243 3.5 16.5 0.00 0.00 0.00 53 1005.0
20260504224042 69 114 4.3 13.0 0.00 0.00 0.00 53 1005.1
20260504223542 69 245 2.6 13.0 0.00 0.00 0.00 54 1005.2
20260504223055 69 320 0.9 11.3 0.00 0.00 0.00 53 1005.1
20260504222542 70 51 1.7 11.3 0.00 0.00 0.00 54 1005.0
20260504222041 70 143 2.6 11.3 0.00 0.00 0.00 54 1005.2
20260504221552 71 75 1.7 8.7 0.00 0.00 0.00 53 1005.0
20260504221041 71 48 1.7 10.4 0.00 0.00 0.00 53 1005.0
20260504220541 69 351 1.7 10.4 0.00 0.00 0.00 55 1005.0
20260504215540 69 61 2.6 12.2 0.00 0.00 0.00 53 1004.9
20260504215044 70 145 2.6 12.2 0.00 0.00 0.00 55 1005.0
20260504214551 70 136 1.7 10.4 0.00 0.00 0.00 53 1005.1
20260504214040 70 153 2.6 10.4 0.00 0.00 0.00 54 1005.2
20260504213539 69 50 3.5 17.4 0.00 0.00 0.00 53 1005.3
20260504213108 69 188 2.6 21.7 0.00 0.00 0.00 54 1005.4
20260504212539 70 40 3.5 21.7 0.00 0.00 0.00 52 1005.3
20260504212045 70 74 5.2 21.7 0.00 0.00 0.00 52 1005.2
20260504211552 71 38 3.5 15.6 0.00 0.00 0.00 51 1005.2
20260504211039 71 55 4.3 20.0 0.00 0.00 0.00 50 1005.2
20260504210544 72 57 4.3 20.0 0.00 0.00 0.00 51 1005.4
20260504210104 72 171 4.3 14.8 0.00 0.00 0.00 50 1005.5
20260504205542 72 166 6.1 14.8 0.00 0.00 0.00 49 1005.3
20260504205039 72 197 5.2 17.4 0.00 0.00 0.00 49 1005.2
20260504204602 72 123 4.3 17.4 0.00 0.00 0.00 49 1005.0
20260504204043 72 180 6.1 17.4 0.00 0.00 0.00 49 1005.0
20260504203540 72 247 2.6 8.7 0.00 0.00 0.00 52 1005.2
20260504203056 71 155 3.5 13.0 0.00 0.00 0.00 51 1005.1
20260504202540 71 149 5.2 15.6 0.00 0.00 0.00 50 1005.2
20260504202040 72 133 4.3 15.6 0.00 0.00 0.00 50 1005.2
20260504201557 73 10 2.6 12.2 0.00 0.00 0.00 49 1005.0
20260504201039 72 74 2.6 12.2 0.00 0.00 0.00 52 1005.2
20260504200539 72 155 1.7 13.0 0.00 0.00 0.00 51 1005.1
20260504200054 72 88 4.3 13.0 0.00 0.00 0.00 49 1005.3
20260504195541 72 0 4.3 13.0 0.00 0.00 0.00 50 1005.3
20260504195041 72 94 3.5 13.0 0.00 0.00 0.00 49 1005.2
20260504194556 72 352 3.5 13.0 0.00 0.00 0.00 49 1005.3
20260504194041 73 11 2.6 10.4 0.00 0.00 0.00 51 1005.2
20260504193541 72 49 2.6 13.0 0.00 0.00 0.00 49 1005.5
20260504193103 71 74 4.3 13.0 0.00 0.00 0.00 50 1005.7
20260504192540 71 67 3.5 12.2 0.00 0.00 0.00 49 1005.7
20260504192045 72 128 5.2 11.3 0.00 0.00 0.00 50 1005.7
20260504191554 71 80 4.3 13.0 0.00 0.00 0.00 50 1005.7
20260504191041 71 130 2.6 13.0 0.00 0.00 0.00 50 1005.8
20260504190540 71 139 2.6 15.6 0.00 0.00 0.00 52 1005.9
20260504190106 71 167 4.3 15.6 0.00 0.00 0.00 50 1005.8
20260504185540 71 101 5.2 13.9 0.00 0.00 0.00 51 1005.8
20260504185039 71 122 4.3 15.6 0.00 0.00 0.00 50 1006.0
20260504184557 71 189 6.1 15.6 0.00 0.00 0.00 50 1006.0
20260504184042 71 43 3.5 11.3 0.00 0.00 0.00 51 1006.1
20260504183541 71 99 3.5 9.6 0.00 0.00 0.00 51 1006.1
20260504183058 71 194 0.9 9.6 0.00 0.00 0.00 54 1006.1
20260504182539 70 155 3.5 11.3 0.00 0.00 0.00 53 1006.1
20260504182041 70 38 4.3 14.8 0.00 0.00 0.00 50 1006.0
20260504181548 70 9 1.7 14.8 0.00 0.00 0.00 52 1006.1
20260504181041 69 11 4.3 13.9 0.00 0.00 0.00 51 1006.1
20260504180541 70 96 2.6 12.2 0.00 0.00 0.00 53 1006.0
20260504180130 69 25 6.1 12.2 0.00 0.00 0.00 53 1006.3
20260504175544 69 0 3.5 8.7 0.00 0.00 0.00 55 1006.3
20260504175041 68 41 1.7 10.4 0.00 0.00 0.00 53 1006.3
20260504174552 68 110 5.2 10.4 0.00 0.00 0.00 53 1006.5
20260504174040 68 68 1.7 9.6 0.00 0.00 0.00 53 1006.4
20260504173540 68 98 3.5 9.6 0.00 0.00 0.00 55 1006.5
20260504173054 68 57 1.7 11.3 0.00 0.00 0.00 53 1006.5
20260504172540 68 159 3.5 11.3 0.00 0.00 0.00 56 1006.6
20260504172040 68 159 2.6 12.2 0.00 0.00 0.00 53 1006.7
20260504171552 68 300 3.5 12.2 0.00 0.00 0.00 56 1006.7
20260504171041 67 88 1.7 9.6 0.00 0.00 0.00 54 1006.9
20260504170537 67 298 2.6 14.8 0.00 0.00 0.00 55 1006.9
20260504151037 62 0 0.9 11.3 0.00 0.00 0.00 60 1007.6
20260504150541 62 136 3.5 11.3 0.00 0.00 0.00 54 1007.7
20260504141042 61 30 0.9 7.8 0.00 0.00 0.00 56 1008.3
20260504140542 59 123 2.6 7.8 0.00 0.00 0.00 56 1008.4
20260504130543 54 0 1.7 7.0 0.00 0.00 0.00 62 1008.8
20260504120105 50 0 0.9 5.2 0.00 0.00 0.00 67 1008.8
20260504110539 48 69 0.0 4.3 0.00 0.00 0.00 71 1008.5